[[{"header":{"parameterUnit":"m.s-1","parameterCategory":1,"la1":30.2991,"la2":30.254,"lo1":-89.0895,"lo2":-89.0444,"dy":0.0017,"dx":0.0017,"nx":28,"ny":28,"refTime":"2023-08-10T03:00:00:Z","depth":0,"parameterNumber":2,"parameterNumberName":"U-component_of_WINDS"},"data":[0,0,0,0,0,0,0,0,0,0,0,0,0,0,0,0,0,0,0,0,0,0,0,0,0,0,0,0,0,0,0,0,0,0,0,0,0,0,0,0,0,0,0,0,0,0,0,0,0,0,0,0,0,0,0,0,0,0,4.7804,4.7805,0,4.7896,4.7897,4.7898,4.7861,4.7859,4.7856,4.7854,4.7946,4.7951,4.7955,0,0,0,0,0,0,0,0,0,0,0,0,0,4.7589,4.7593,4.7804,4.7805,4.7806,4.7896,4.7897,4.7899,4.7861,4.7859,4.7856,4.7853,4.7945,4.795,4.7955,0,0,0,0,0,0,0,0,0,0,0,0,0,4.7682,4.7595,4.7804,4.7798,4.7799,4.7896,4.7898,4.7899,4.7862,4.7859,4.7855,4.7852,4.7943,4.795,4.7956,4.8063,0,0,4.7977,4.798,0,0,0,0,0,0,0,0,4.7677,4.769,4.7798,4.7799,4.78,4.7864,4.7855,4.7954,4.7863,4.7838,4.7854,4.7851,4.7921,4.793,4.7954,4.8067,4.8071,4.7977,4.7981,4.7984,4.7986,0,0,0,0,0,0,0,4.767,4.7686,4.784,4.78,4.7801,4.7789,4.7799,4.7874,4.7897,4.784,4.7837,4.7849,4.7921,4.7948,4.7956,4.8073,4.7977,4.7983,4.7987,4.799,4.8272,4.8275,0,0,0,0,0,0,4.7664,4.7681,4.7837,4.7843,4.7729,4.7796,4.7807,4.7846,4.7896,4.79,4.7852,4.7847,4.7938,4.7948,4.7959,4.8083,4.7984,4.799,4.7994,4.8269,4.8273,4.8277,0,0,0,0,0,0,4.766,4.7679,4.7834,4.7761,4.778,4.7803,4.7848,4.785,4.7876,4.7905,4.7908,4.7875,4.7936,4.7949,4.8036,4.8086,4.7993,4.8,4.8265,4.827,4.8275,4.8334,0,0,0,0,0,0,4.7654,4.7677,4.772,4.7763,4.7784,4.7911,4.7851,4.7854,4.7888,4.7883,4.7927,4.7932,4.7934,4.8026,4.8043,4.8093,4.8005,4.826,4.8267,4.8273,4.8328,4.8341,4.8352,0,0,0,0,0,4.7646,4.7734,4.7722,4.7741,4.7838,4.7914,4.7927,4.7928,4.7893,4.7934,4.7951,4.793,4.8078,4.8036,4.8054,4.8107,4.8257,4.8265,4.8273,4.8323,4.8338,4.8352,0,0,0,0,0,0,4.7696,4.7739,4.7727,4.7831,4.7869,4.7908,4.796,4.7946,4.7995,4.7987,4.7987,4.7997,4.8085,4.8106,4.8057,4.821,4.8162,4.8174,4.8194,4.8209,4.8221,4.8212,4.801,0,0,0,0,0,4.7719,4.7779,4.7813,4.7901,4.7921,4.7938,4.7971,4.7969,4.8008,4.8024,4.8048,4.8086,4.814,4.8176,4.8228,4.8331,4.8338,4.8377,4.8389,4.8398,4.8407,4.8458,4.8474,4.8302,4.8302,4.8302,0,0,4.7767,4.7798,4.7836,4.7912,4.7941,4.8001,4.7952,4.8018,4.8061,4.8034,4.8116,4.8135,4.8177,4.8271,4.8314,4.829,4.8457,4.8408,4.8416,4.842,4.8468,4.8484,4.8499,4.8308,4.8307,4.8306,0,0,4.7884,4.7916,4.799,4.802,4.8065,4.8075,4.8093,4.8134,4.8145,4.8228,4.8207,4.8258,4.8353,4.8382,4.8409,4.8534,4.8514,4.8551,4.8613,4.8662,4.8676,4.8687,4.8727,4.8742,4.8561,4.8561,4.8561,0,4.7938,4.8029,4.803,4.8097,4.8129,4.8107,4.818,4.8209,4.8269,4.829,4.8264,4.8379,4.8407,4.8504,4.8534,4.8559,4.8576,4.8545,4.8674,4.8686,4.8697,4.8735,4.875,4.8565,4.8564,4.8564,4.8564,0,4.809,4.8152,4.8207,4.8264,4.8302,4.8372,4.8382,4.842,4.8414,4.8426,4.8508,4.854,4.8595,4.8619,4.8615,4.8716,4.8699,4.8674,4.8624,4.8717,4.8752,4.8767,4.857,4.8569,4.8568,4.8567,0,0,4.8241,4.8296,4.8315,4.8339,4.8386,4.8433,4.85,4.8555,4.8586,4.8627,4.868,4.876,4.8735,4.8766,4.8765,4.8809,4.8899,4.8777,4.8778,4.8795,4.9007,4.9023,4.904,4.8888,4.8891,4.8893,4.9002,0,4.8358,4.8476,4.8478,4.8586,4.8641,4.862,4.8678,4.8711,4.8723,4.877,4.8784,4.8838,4.8804,4.8822,4.8865,4.8879,4.8941,4.8872,4.8934,4.8936,4.8921,4.9059,4.9077,4.9178,4.9016,4.9018,4.902,0,4.8511,4.8555,4.8668,4.8703,4.8726,4.8778,4.8826,4.8872,4.8908,4.8914,4.8947,4.8938,4.9003,4.8954,4.9041,4.8994,4.9019,4.903,4.9034,4.9037,4.8981,4.9062,4.9211,4.9225,4.9043,4.9041,4.9039,0,4.8603,4.8692,4.877,4.8791,4.8835,4.8871,4.8891,4.8924,4.8955,4.8997,4.9016,4.9065,4.9091,4.9128,4.9131,4.9096,4.9217,4.917,4.922,4.922,4.9244,4.9242,4.9396,4.9268,4.9268,4.9267,4.9267,0,4.8731,4.88,4.8811,4.8859,4.8934,4.8935,4.9008,4.9025,4.9054,4.9101,4.9088,4.9132,4.9135,4.9181,4.9184,4.9253,4.9266,4.927,4.9269,4.9269,4.9268,4.9283,4.9274,4.9271,4.927,4.927,4.9269,0,4.8847,4.8858,4.894,4.8974,4.8984,4.9037,4.9065,4.9109,4.9119,4.918,4.9194,4.921,4.9262,4.9269,4.9331,4.9333,4.9414,4.9409,4.9402,4.94,4.9448,4.9442,4.9614,4.9635,4.9497,4.9498,4.9499,0,4.8926,4.8978,4.9017,4.9048,4.9069,4.912,4.9151,4.9154,4.9186,4.9229,4.9267,4.9318,4.9358,4.9443,4.9458,4.9505,4.9497,4.9554,4.9504,4.95,4.9492,4.9487,4.949,4.9562,4.9564,4.9565,4.9566,0,4.9064,4.9066,4.9112,4.9159,4.9197,4.9234,4.9269,4.9295,4.9301,4.9338,4.9391,4.9423,4.9485,4.9534,4.9579,4.9597,4.9581,4.9582,4.9596,4.9594,4.9586,4.9587,4.9424,4.9578,4.9577,4.9576,4.9575,4.9575,4.916,4.9203,4.9236,4.9287,4.9314,4.9346,4.9387,4.9402,4.9447,4.9497,4.9496,4.9553,4.9584,4.9642,4.9663,4.9707,4.9688,4.9708,4.9713,4.9717,4.9719,4.9583,4.9715,4.9715,4.9715,4.9715,4.9714,0,4.9293,4.9313,4.936,4.9408,4.9447,4.9431,4.9467,4.95,4.9551,4.9582,4.9622,4.968,4.9728,4.9746,4.9792,4.9822,4.9816,4.9834,4.9829,4.9833,4.9736,4.9718,4.9838,4.9838,4.9838,4.9838,4.9838,4.9838,4.9367,4.9437,4.9443,4.9525,4.9544,4.9601,4.9622,4.9651,4.9674,4.9741,4.978,4.9792,4.9817,4.9863,4.9904,4.9909,4.9924,4.9944,4.9945,4.9853,4.984,4.9828,4.9811,4.9948,4.9949,5.0037,5.0038,5.0039]},{"header":{"parameterUnit":"m.s-1","parameterCategory":1,"la1":30.2991,"la2":30.254,"lo1":-89.0895,"lo2":-89.0444,"dy":0.0017,"dx":0.0017,"nx":28,"ny":28,"refTime":"2023-08-10T03:00:00:Z","depth":0,"parameterNumber":3,"parameterNumberName":"V-component_of_WINDS"},"data":[0,0,0,0,0,0,0,0,0,0,0,0,0,0,0,0,0,0,0,0,0,0,0,0,0,0,0,0,0,0,0,0,0,0,0,0,0,0,0,0,0,0,0,0,0,0,0,0,0,0,0,0,0,0,0,0,0,0,6.0341,6.0343,0,6.0473,6.0474,6.0476,6.0418,6.0415,6.0412,6.0409,6.054,6.0546,6.0553,0,0,0,0,0,0,0,0,0,0,0,0,0,6.0034,6.004,6.0341,6.0343,6.0344,6.0472,6.0474,6.0476,6.0419,6.0415,6.0411,6.0407,6.0538,6.0546,6.0554,0,0,0,0,0,0,0,0,0,0,0,0,0,6.0167,6.0042,6.0341,6.0331,6.0332,6.0472,6.0474,6.0477,6.0419,6.0415,6.041,6.0405,6.0536,6.0545,6.0555,6.0711,0,0,6.0584,6.0589,0,0,0,0,0,0,0,0,6.0159,6.0178,6.0331,6.0332,6.0333,6.0424,6.0414,6.0555,6.0421,6.0386,6.0409,6.0403,6.0505,6.0517,6.0552,6.0717,6.0723,6.0585,6.0591,6.0595,6.0598,0,0,0,0,0,0,0,6.015,6.0172,6.0393,6.0333,6.0334,6.0318,6.0332,6.0441,6.0471,6.0389,6.0385,6.0401,6.0505,6.0543,6.0555,6.0725,6.0585,6.0594,6.06,6.0603,6.1021,6.1026,0,0,0,0,0,0,6.0142,6.0165,6.0389,6.0397,6.0233,6.0328,6.0343,6.04,6.047,6.0476,6.0405,6.0398,6.0529,6.0544,6.0559,6.0745,6.0595,6.0604,6.061,6.1016,6.1022,6.1028,0,0,0,0,0,0,6.0135,6.0162,6.0383,6.028,6.0307,6.0338,6.0402,6.0405,6.0443,6.0482,6.0487,6.0439,6.0526,6.0546,6.0673,6.0749,6.0609,6.0618,6.1009,6.1018,6.1025,6.1119,0,0,0,0,0,0,6.0127,6.016,6.0222,6.0282,6.0313,6.0497,6.0407,6.0411,6.046,6.0452,6.0515,6.0521,6.0523,6.0659,6.0683,6.076,6.0625,6.1003,6.1013,6.1022,6.1109,6.1129,6.1146,0,0,0,0,0,6.0116,6.0243,6.0225,6.0253,6.039,6.0502,6.0519,6.052,6.0467,6.0527,6.0552,6.0519,6.0737,6.0673,6.0699,6.078,6.0998,6.101,6.1022,6.1101,6.1125,6.1145,0,0,0,0,0,0,6.0191,6.0251,6.0232,6.0382,6.0437,6.0492,6.0569,6.0546,6.0617,6.0606,6.0603,6.0618,6.0749,6.0777,6.0705,6.0933,6.0859,6.0877,6.091,6.0933,6.0951,6.0942,6.0633,0,0,0,0,0,6.0225,6.0312,6.0359,6.0487,6.0516,6.0538,6.0586,6.0582,6.0638,6.0661,6.0695,6.075,6.083,6.0883,6.096,6.1113,6.1124,6.1181,6.1199,6.1214,6.1229,6.1309,6.1334,6.1066,6.1066,6.1066,0,0,6.0296,6.034,6.0395,6.0503,6.0545,6.0633,6.0558,6.0655,6.0719,6.0676,6.0798,6.0825,6.0885,6.1025,6.1089,6.1053,6.1305,6.1229,6.1241,6.1248,6.1324,6.1349,6.1371,6.1074,6.1073,6.1072,0,0,6.0471,6.0514,6.0624,6.0667,6.0732,6.0745,6.0771,6.0829,6.0845,6.0968,6.0936,6.1011,6.1151,6.1194,6.1235,6.1422,6.1394,6.1447,6.1543,6.1621,6.1642,6.166,6.1725,6.1749,6.1462,6.1462,6.1463,0,6.0551,6.0684,6.0683,6.0782,6.0829,6.0794,6.0903,6.0945,6.1031,6.1064,6.1022,6.1194,6.1233,6.1381,6.1427,6.1461,6.1489,6.144,6.1639,6.1658,6.1675,6.1737,6.1761,6.1468,6.1468,6.1467,6.1466,0,6.0778,6.087,6.0951,6.1035,6.1091,6.1195,6.1208,6.1264,6.1254,6.1271,6.1395,6.1439,6.1523,6.1558,6.1549,6.1704,6.1679,6.1639,6.1564,6.1707,6.1764,6.1788,6.1477,6.1475,6.1473,6.1472,0,0,6.1005,6.1085,6.1114,6.1151,6.1218,6.1288,6.1389,6.1471,6.1519,6.1578,6.1661,6.1778,6.174,6.1786,6.1782,6.185,6.1993,6.1801,6.1802,6.1833,6.2163,6.2192,6.222,6.1974,6.1979,6.1982,6.2157,0,6.1182,6.1361,6.1361,6.1525,6.1608,6.1574,6.1661,6.1711,6.1728,6.18,6.1819,6.1901,6.1846,6.1873,6.1939,6.1962,6.2059,6.1949,6.2049,6.2053,6.2034,6.225,6.2282,6.2445,6.218,6.2184,6.2187,0,6.1415,6.1481,6.1653,6.1705,6.174,6.1819,6.1893,6.1963,6.2017,6.2024,6.2074,6.2059,6.2158,6.2081,6.2217,6.2142,6.2183,6.22,6.2206,6.2215,6.2128,6.2263,6.2498,6.2522,6.2223,6.222,6.2217,0,6.156,6.1693,6.1812,6.1845,6.1909,6.1965,6.1994,6.2044,6.2092,6.2155,6.2186,6.226,6.2301,6.2357,6.2361,6.2305,6.2497,6.2421,6.2504,6.2504,6.2546,6.2544,6.2789,6.2575,6.2574,6.2574,6.2574,0,6.1758,6.1864,6.1878,6.1951,6.2068,6.2066,6.2181,6.2205,6.2249,6.2324,6.2299,6.237,6.2371,6.2443,6.2446,6.2557,6.2576,6.2583,6.2582,6.2585,6.2584,6.2611,6.2599,6.2581,6.2579,6.2578,6.2577,0,6.1941,6.1955,6.2082,6.2132,6.2147,6.223,6.2272,6.2341,6.2355,6.245,6.2473,6.2495,6.2578,6.2587,6.2684,6.2686,6.2819,6.2807,6.2801,6.2798,6.2881,6.2872,6.3152,6.3187,6.2951,6.2953,6.2955,0,6.2066,6.2146,6.2204,6.2253,6.2286,6.2365,6.2414,6.2414,6.2465,6.2531,6.2591,6.2672,6.2736,6.287,6.2893,6.2966,6.2955,6.3047,6.2966,6.2964,6.2954,6.2949,6.2955,6.3063,6.3066,6.3068,6.307,0,6.2285,6.2288,6.2359,6.2433,6.2492,6.255,6.2604,6.2645,6.2652,6.271,6.2795,6.2845,6.2943,6.3022,6.3093,6.3121,6.3096,6.3095,6.3118,6.3121,6.3113,6.3116,6.2842,6.3089,6.3087,6.3085,6.3084,6.3084,6.2442,6.251,6.2562,6.2641,6.2682,6.2733,6.2799,6.2821,6.2892,6.2972,6.2967,6.306,6.3108,6.3201,6.3234,6.3305,6.3274,6.3308,6.3316,6.3324,6.3332,6.3103,6.3318,6.3318,6.3317,6.3317,6.3316,0,6.2658,6.2689,6.2762,6.2839,6.2901,6.2872,6.293,6.2983,6.3065,6.3113,6.3177,6.3272,6.3348,6.3377,6.3451,6.3502,6.3492,6.3521,6.3517,6.3523,6.3356,6.3328,6.3527,6.3527,6.3527,6.3527,6.3527,6.3527,6.2778,6.2892,6.29,6.3033,6.3062,6.3153,6.3188,6.3234,6.3272,6.338,6.3443,6.3461,6.3501,6.3577,6.3644,6.365,6.3678,6.3711,6.3713,6.3556,6.3535,6.3515,6.3488,6.3718,6.3718,6.3873,6.3875,6.3876]}]]